Location: Unnamed
(51.8936°N, 11.0665°E)
Time: 08:46:47
(UTC+02:00)

PicSat - Pass Details

Date: 25 September 2021
Orbit: 474 x 487 km, 97.4° (Epoch: 17 October)

Event Time Altitude Azimuth Distance (km) Brightness Sun altitude
Exits shadow 22:52:39 11° 358° (N) 1,598 ? -32.0°
Drops below altitude 10° 22:52:52 10° 357° (N) 1,686 ? -32.0°
Sets 22:54:59 0° 351° (N) 2,570 ? -32.2°
